[[{"header":{"parameterUnit":"m.s-1","parameterCategory":1,"la1":30.2991,"la2":30.254,"lo1":-89.0895,"lo2":-89.0444,"dx":0.0017,"dy":0.0017,"nx":28,"ny":28,"refTime":"2023-01-20T09:00:00:Z","depth":0,"parameterNumber":2,"parameterNumberName":"U-component_of_WINDS"},"data":[0,0,0,0,0,0,0,0,0,0,0,0,0,0,0,0,0,0,0,0,0,0,0,0,0,0,0,0,0,0,0,0,0,0,0,0,0,0,0,0,0,0,0,0,0,0,0,0,0,0,0,0,0,0,0,0,0,0,-1.0512,-1.0512,0,-1.0554,-1.0555,-1.0555,-1.0513,-1.0511,-1.051,-1.0508,-1.0554,-1.0557,-1.056,0,0,0,0,0,0,0,0,0,0,0,0,0,-1.0395,-1.0398,-1.0512,-1.0512,-1.0513,-1.0554,-1.0555,-1.0555,-1.0513,-1.0511,-1.0509,-1.0507,-1.0554,-1.0557,-1.056,0,0,0,0,0,0,0,0,0,0,0,0,0,-1.0443,-1.0398,-1.0512,-1.0497,-1.0496,-1.0554,-1.0555,-1.0556,-1.0514,-1.0511,-1.0509,-1.0506,-1.0552,-1.0556,-1.0561,-1.0637,0,0,-1.0573,-1.0575,0,0,0,0,0,0,0,0,-1.044,-1.0447,-1.0498,-1.0498,-1.0497,-1.0526,-1.0531,-1.0583,-1.0514,-1.0507,-1.0508,-1.0505,-1.0547,-1.0552,-1.0565,-1.0639,-1.0641,-1.0574,-1.0576,-1.0578,-1.0579,0,0,0,0,0,0,0,-1.0437,-1.0445,-1.0529,-1.0499,-1.0498,-1.0488,-1.0492,-1.054,-1.0541,-1.0508,-1.0505,-1.051,-1.0546,-1.0561,-1.0566,-1.0641,-1.0574,-1.0577,-1.058,-1.0582,-1.0779,-1.0782,0,0,0,0,0,0,-1.0435,-1.0443,-1.0527,-1.053,-1.0462,-1.0492,-1.0497,-1.0519,-1.054,-1.0541,-1.0512,-1.0508,-1.0555,-1.0561,-1.0567,-1.0658,-1.0578,-1.0582,-1.0584,-1.0777,-1.078,-1.0783,0,0,0,0,0,0,-1.0433,-1.0443,-1.0526,-1.0485,-1.0495,-1.0497,-1.0522,-1.0521,-1.0536,-1.0543,-1.0544,-1.0527,-1.0554,-1.0562,-1.0619,-1.0659,-1.0584,-1.0588,-1.0773,-1.0778,-1.0781,-1.084,0,0,0,0,0,0,-1.0429,-1.0442,-1.0471,-1.0486,-1.0497,-1.0577,-1.0525,-1.0524,-1.0543,-1.0538,-1.0558,-1.0559,-1.0552,-1.0613,-1.0624,-1.0664,-1.0591,-1.077,-1.0775,-1.078,-1.0835,-1.0846,-1.0855,0,0,0,0,0,-1.0425,-1.0486,-1.0473,-1.0483,-1.0533,-1.0579,-1.0586,-1.0576,-1.0547,-1.0576,-1.058,-1.0558,-1.0653,-1.062,-1.0631,-1.0673,-1.0767,-1.0774,-1.078,-1.083,-1.0843,-1.0855,0,0,0,0,0,0,-1.0477,-1.0488,-1.0473,-1.0541,-1.0559,-1.0572,-1.0609,-1.0591,-1.0619,-1.0613,-1.0601,-1.0605,-1.0667,-1.0675,-1.0638,-1.0747,-1.0705,-1.0714,-1.074,-1.0753,-1.0763,-1.076,-1.0594,0,0,0,0,0,-1.0496,-1.0532,-1.054,-1.0599,-1.0608,-1.0607,-1.0627,-1.0617,-1.0636,-1.0644,-1.0653,-1.0673,-1.0707,-1.073,-1.0762,-1.0835,-1.0839,-1.0869,-1.0879,-1.0887,-1.0896,-1.0935,-1.0949,-1.0803,-1.0803,-1.0803,0,0,-1.0536,-1.0547,-1.057,-1.0609,-1.0622,-1.066,-1.0614,-1.0656,-1.0684,-1.0651,-1.0706,-1.0713,-1.0734,-1.08,-1.083,-1.0809,-1.0936,-1.0895,-1.0902,-1.0906,-1.0943,-1.0957,-1.0969,-1.0807,-1.0806,-1.0806,0,0,-1.0629,-1.064,-1.0691,-1.0704,-1.0724,-1.0723,-1.0735,-1.075,-1.0753,-1.0808,-1.0784,-1.0817,-1.0876,-1.0892,-1.0908,-1.1005,-1.0986,-1.1015,-1.107,-1.1108,-1.112,-1.113,-1.1165,-1.1178,-1.1023,-1.1023,-1.1023,0,-1.0677,-1.0732,-1.0719,-1.0763,-1.0781,-1.0751,-1.0802,-1.0816,-1.0846,-1.0859,-1.0835,-1.0908,-1.092,-1.099,-1.1013,-1.1027,-1.1041,-1.1014,-1.1119,-1.1129,-1.1138,-1.1172,-1.1185,-1.1027,-1.1027,-1.1026,-1.1026,0,-1.0791,-1.0829,-1.0868,-1.0896,-1.0918,-1.0966,-1.096,-1.0984,-1.0972,-1.0973,-1.1029,-1.1042,-1.1076,-1.1091,-1.1081,-1.1159,-1.1146,-1.1121,-1.1079,-1.1156,-1.1188,-1.12,-1.1032,-1.1031,-1.103,-1.1029,0,0,-1.092,-1.0939,-1.0953,-1.0966,-1.0985,-1.1015,-1.106,-1.1092,-1.1113,-1.1134,-1.1173,-1.1222,-1.1199,-1.1217,-1.1208,-1.1241,-1.1318,-1.1212,-1.1212,-1.1232,-1.1406,-1.1426,-1.1441,-1.1305,-1.1307,-1.1309,-1.1404,0,-1.1014,-1.1093,-1.1081,-1.1157,-1.1193,-1.1164,-1.1204,-1.122,-1.1222,-1.1253,-1.1254,-1.129,-1.1256,-1.1266,-1.1298,-1.1302,-1.1353,-1.1295,-1.1341,-1.1343,-1.1339,-1.1457,-1.1479,-1.1569,-1.1417,-1.1419,-1.142,0,-1.1135,-1.1159,-1.1239,-1.1252,-1.1266,-1.1302,-1.1331,-1.136,-1.1378,-1.1376,-1.1396,-1.138,-1.1426,-1.1381,-1.1445,-1.1406,-1.1423,-1.1428,-1.1431,-1.1437,-1.1388,-1.1468,-1.1597,-1.1611,-1.1439,-1.1438,-1.1436,0,-1.1223,-1.1275,-1.1329,-1.1341,-1.1357,-1.1383,-1.1391,-1.1406,-1.1425,-1.145,-1.1463,-1.1492,-1.1509,-1.1533,-1.1526,-1.1494,-1.1591,-1.1546,-1.1592,-1.1592,-1.1615,-1.1615,-1.1751,-1.1624,-1.1624,-1.1624,-1.1624,0,-1.133,-1.138,-1.1369,-1.1403,-1.1458,-1.1444,-1.1499,-1.1503,-1.1517,-1.1551,-1.1527,-1.156,-1.1548,-1.158,-1.1574,-1.1628,-1.1635,-1.1636,-1.1634,-1.1639,-1.1639,-1.1652,-1.1647,-1.1627,-1.1627,-1.1626,-1.1625,0,-1.1438,-1.1432,-1.149,-1.15,-1.1503,-1.1544,-1.1552,-1.1584,-1.1583,-1.1626,-1.1636,-1.1634,-1.1671,-1.1665,-1.1706,-1.1702,-1.1769,-1.1759,-1.1763,-1.1762,-1.1809,-1.1805,-1.196,-1.198,-1.1839,-1.184,-1.1841,0,-1.1508,-1.1546,-1.1559,-1.158,-1.159,-1.1624,-1.1643,-1.163,-1.1652,-1.1674,-1.1703,-1.1737,-1.1764,-1.1823,-1.1826,-1.1857,-1.1848,-1.19,-1.1853,-1.1857,-1.1851,-1.1849,-1.1853,-1.1911,-1.1912,-1.1913,-1.1914,0,-1.1634,-1.1628,-1.1657,-1.1685,-1.1709,-1.173,-1.175,-1.1768,-1.1757,-1.1782,-1.1818,-1.1839,-1.1879,-1.1914,-1.1942,-1.1951,-1.1932,-1.1929,-1.1941,-1.1948,-1.1949,-1.195,-1.1791,-1.1926,-1.1925,-1.1924,-1.1923,-1.1923,-1.1726,-1.1758,-1.1772,-1.1805,-1.1817,-1.1836,-1.1866,-1.1867,-1.1897,-1.1929,-1.1919,-1.1961,-1.1976,-1.2013,-1.2024,-1.2056,-1.2037,-1.2055,-1.206,-1.2065,-1.2071,-1.1942,-1.2061,-1.2061,-1.2061,-1.206,-1.206,0,-1.1851,-1.1858,-1.1888,-1.1915,-1.1941,-1.1918,-1.1938,-1.1961,-1.1998,-1.2013,-1.204,-1.2081,-1.2114,-1.2119,-1.215,-1.2175,-1.2167,-1.2183,-1.2182,-1.2185,-1.2086,-1.2073,-1.219,-1.2189,-1.2189,-1.2189,-1.2189,-1.2189,-1.1919,-1.1972,-1.1969,-1.2028,-1.2034,-1.2074,-1.2088,-1.2104,-1.2117,-1.2164,-1.2191,-1.2193,-1.2204,-1.2236,-1.2265,-1.2265,-1.2278,-1.2299,-1.2296,-1.2205,-1.2192,-1.218,-1.2167,-1.2301,-1.2302,-1.2392,-1.2393,-1.2394]},{"header":{"parameterUnit":"m.s-1","parameterCategory":1,"la1":30.2991,"la2":30.254,"lo1":-89.0895,"lo2":-89.0444,"dx":0.0017,"dy":0.0017,"nx":28,"ny":28,"refTime":"2023-01-20T09:00:00:Z","depth":0,"parameterNumber":3,"parameterNumberName":"V-component_of_WINDS"},"data":[0,0,0,0,0,0,0,0,0,0,0,0,0,0,0,0,0,0,0,0,0,0,0,0,0,0,0,0,0,0,0,0,0,0,0,0,0,0,0,0,0,0,0,0,0,0,0,0,0,0,0,0,0,0,0,0,0,0,-5.0215,-5.0216,0,-5.0306,-5.0307,-5.0308,-5.0228,-5.0225,-5.0222,-5.0219,-5.0308,-5.0313,-5.0319,0,0,0,0,0,0,0,0,0,0,0,0,0,-4.9969,-4.9974,-5.0215,-5.0216,-5.0217,-5.0306,-5.0307,-5.0308,-5.0229,-5.0225,-5.0221,-5.0217,-5.0306,-5.0313,-5.0319,0,0,0,0,0,0,0,0,0,0,0,0,0,-5.0069,-4.9975,-5.0215,-5.0188,-5.0187,-5.0305,-5.0307,-5.0308,-5.023,-5.0225,-5.022,-5.0215,-5.0304,-5.0312,-5.032,-5.0468,0,0,-5.0345,-5.0348,0,0,0,0,0,0,0,0,-5.0064,-5.0078,-5.0191,-5.019,-5.0189,-5.0251,-5.0253,-5.0362,-5.0231,-5.0213,-5.0218,-5.0213,-5.0293,-5.0301,-5.0329,-5.0472,-5.0476,-5.0346,-5.0351,-5.0354,-5.0356,0,0,0,0,0,0,0,-5.0057,-5.0074,-5.0251,-5.0193,-5.0192,-5.0171,-5.018,-5.0273,-5.0279,-5.0214,-5.0209,-5.0221,-5.0291,-5.0322,-5.0331,-5.0478,-5.0345,-5.0353,-5.0358,-5.0361,-5.0747,-5.0752,0,0,0,0,0,0,-5.0053,-5.0069,-5.0248,-5.0253,-5.0113,-5.0179,-5.0189,-5.0236,-5.0278,-5.028,-5.0225,-5.0217,-5.031,-5.0321,-5.0333,-5.051,-5.0354,-5.0362,-5.0366,-5.0741,-5.0748,-5.0754,0,0,0,0,0,0,-5.0048,-5.007,-5.0244,-5.016,-5.018,-5.0189,-5.0242,-5.024,-5.027,-5.0286,-5.0286,-5.0255,-5.0307,-5.0322,-5.0436,-5.0512,-5.0365,-5.0373,-5.0735,-5.0743,-5.0751,-5.0864,0,0,0,0,0,0,-5.0041,-5.0069,-5.0126,-5.0162,-5.0185,-5.0346,-5.0246,-5.0245,-5.0285,-5.0275,-5.0314,-5.0316,-5.0304,-5.0424,-5.0444,-5.0521,-5.0379,-5.0728,-5.0739,-5.0748,-5.0854,-5.0875,-5.0894,0,0,0,0,0,-5.0033,-5.0153,-5.0129,-5.0151,-5.0257,-5.0351,-5.0364,-5.0349,-5.0292,-5.0349,-5.0359,-5.0315,-5.05,-5.0436,-5.0458,-5.0538,-5.0723,-5.0736,-5.0747,-5.0845,-5.0871,-5.0893,0,0,0,0,0,0,-5.0125,-5.0158,-5.0131,-5.0267,-5.0307,-5.0337,-5.0409,-5.0377,-5.0433,-5.0421,-5.0398,-5.0408,-5.0528,-5.0544,-5.0472,-5.0684,-5.0602,-5.0619,-5.0669,-5.0694,-5.0714,-5.0707,-5.0386,0,0,0,0,0,-5.0162,-5.0236,-5.026,-5.0377,-5.0399,-5.0401,-5.0441,-5.0426,-5.0466,-5.0482,-5.05,-5.0539,-5.0606,-5.0651,-5.0713,-5.0855,-5.0863,-5.0921,-5.0941,-5.0957,-5.0973,-5.1049,-5.1075,-5.0793,-5.0793,-5.0793,0,0,-5.0237,-5.0264,-5.0312,-5.0397,-5.0426,-5.0503,-5.0416,-5.05,-5.0557,-5.0494,-5.0603,-5.0618,-5.066,-5.0789,-5.0846,-5.0806,-5.1052,-5.0973,-5.0986,-5.0992,-5.1064,-5.1091,-5.1114,-5.0801,-5.08,-5.0799,0,0,-5.0414,-5.0442,-5.0544,-5.0575,-5.062,-5.0621,-5.0645,-5.0681,-5.0689,-5.0798,-5.0752,-5.0818,-5.0934,-5.0966,-5.0998,-5.1187,-5.1149,-5.1208,-5.1312,-5.1387,-5.1409,-5.1429,-5.1497,-5.1521,-5.1223,-5.1223,-5.1223,0,-5.0502,-5.0617,-5.0599,-5.0688,-5.0726,-5.0674,-5.0776,-5.0807,-5.087,-5.0897,-5.0851,-5.0996,-5.1021,-5.1156,-5.1203,-5.123,-5.1256,-5.1204,-5.1408,-5.1427,-5.1445,-5.151,-5.1535,-5.123,-5.1229,-5.1228,-5.1228,0,-5.0723,-5.0804,-5.088,-5.0944,-5.099,-5.1085,-5.1081,-5.113,-5.111,-5.1115,-5.1226,-5.1254,-5.1322,-5.1352,-5.1334,-5.1486,-5.1459,-5.1411,-5.1329,-5.1479,-5.1539,-5.1564,-5.124,-5.1237,-5.1235,-5.1234,0,0,-5.0961,-5.1015,-5.1043,-5.1072,-5.1118,-5.1179,-5.1271,-5.1338,-5.1381,-5.1426,-5.1502,-5.1602,-5.1558,-5.1593,-5.1578,-5.1643,-5.1792,-5.1587,-5.1587,-5.1624,-5.1961,-5.1997,-5.2026,-5.1766,-5.1771,-5.1775,-5.1957,0,-5.1141,-5.1303,-5.1289,-5.1441,-5.1515,-5.1467,-5.1547,-5.1583,-5.159,-5.1653,-5.1659,-5.1731,-5.1667,-5.1688,-5.1751,-5.1761,-5.1859,-5.1747,-5.1836,-5.184,-5.1828,-5.2058,-5.2097,-5.2268,-5.1981,-5.1985,-5.1988,0,-5.1372,-5.1427,-5.1588,-5.1623,-5.1653,-5.1726,-5.1786,-5.1847,-5.1887,-5.1887,-5.1928,-5.1901,-5.1992,-5.1908,-5.2033,-5.1957,-5.1993,-5.2003,-5.2009,-5.2017,-5.1923,-5.2073,-5.2322,-5.2348,-5.2024,-5.2021,-5.2019,0,-5.153,-5.1644,-5.1755,-5.1781,-5.1825,-5.1877,-5.1898,-5.1933,-5.1974,-5.2026,-5.2053,-5.2115,-5.2149,-5.2196,-5.2186,-5.2126,-5.2314,-5.2229,-5.2317,-5.2317,-5.2359,-5.2357,-5.2619,-5.2381,-5.2381,-5.238,-5.238,0,-5.1733,-5.1833,-5.1827,-5.1895,-5.2006,-5.1988,-5.2098,-5.2112,-5.2144,-5.2213,-5.2174,-5.2239,-5.2222,-5.2286,-5.2279,-5.2384,-5.2399,-5.2401,-5.2398,-5.2405,-5.2405,-5.2429,-5.2417,-5.2387,-5.2386,-5.2384,-5.2383,0,-5.1929,-5.1929,-5.2047,-5.2079,-5.209,-5.217,-5.2197,-5.226,-5.2264,-5.2352,-5.2372,-5.2377,-5.2451,-5.2446,-5.2529,-5.2523,-5.2653,-5.2636,-5.2641,-5.2637,-5.2725,-5.2717,-5.3012,-5.305,-5.2787,-5.279,-5.2792,0,-5.2058,-5.2134,-5.2175,-5.222,-5.2244,-5.2316,-5.2358,-5.2344,-5.2389,-5.2441,-5.2498,-5.2569,-5.2625,-5.2745,-5.2755,-5.2818,-5.2802,-5.2901,-5.2811,-5.2816,-5.2804,-5.28,-5.2808,-5.2919,-5.2922,-5.2924,-5.2926,0,-5.2288,-5.2285,-5.2348,-5.2412,-5.2464,-5.2513,-5.2557,-5.2596,-5.2585,-5.2638,-5.2714,-5.2758,-5.2843,-5.2913,-5.2973,-5.2992,-5.2958,-5.2954,-5.2978,-5.2986,-5.2986,-5.2988,-5.269,-5.2948,-5.2946,-5.2944,-5.2943,-5.2942,-5.2455,-5.2521,-5.256,-5.2632,-5.2664,-5.2707,-5.2769,-5.2781,-5.2844,-5.2914,-5.2901,-5.2986,-5.3023,-5.3101,-5.3126,-5.3191,-5.3156,-5.319,-5.3199,-5.3208,-5.3218,-5.2976,-5.3202,-5.3201,-5.3201,-5.32,-5.32,0,-5.2683,-5.2707,-5.2773,-5.2838,-5.2894,-5.2857,-5.2905,-5.2954,-5.303,-5.3069,-5.3125,-5.3212,-5.328,-5.3296,-5.3361,-5.341,-5.3396,-5.3428,-5.3425,-5.343,-5.3246,-5.322,-5.3439,-5.3439,-5.3438,-5.3438,-5.3438,-5.3438,-5.2809,-5.2919,-5.292,-5.3044,-5.3066,-5.3151,-5.3181,-5.322,-5.325,-5.335,-5.3407,-5.3418,-5.3447,-5.3514,-5.3574,-5.3577,-5.3603,-5.3641,-5.3638,-5.3466,-5.3442,-5.342,-5.3395,-5.3647,-5.3647,-5.3816,-5.3817,-5.3819]}]]